KC5NAM Weather Reports


Display with metric or nautical units.
time (UTC)temp
F
wind
direction
speed
MPH
gust
MPH
rain 1hr
in
rain 24hr
in
rain mn
in
humidity
%
barometer
mb
20260510023043 81 92 0.0 4.0 0.00 0.04 0.04 70 1013.8
20260510022536 81 0 0.0 4.0 0.00 0.04 0.04 70 1013.8
20260510022037 81 67 0.0 4.0 0.00 0.04 0.04 70 1013.7
20260510021541 81 107 0.0 4.0 0.00 0.04 0.04 70 1013.7
20260510021037 82 86 0.0 2.0 0.00 0.04 0.04 69 1013.7
20260510020536 82 0 0.0 3.0 0.00 0.04 0.04 69 1013.6
20260510020052 82 0 0.0 3.0 0.00 0.04 0.04 69 1013.6
20260510015536 82 0 0.0 3.0 0.00 0.04 0.04 68 1013.5
20260510015036 83 0 0.0 1.0 0.00 0.04 0.04 68 1013.4
20260510014539 83 0 0.0 1.0 0.00 0.04 0.04 68 1013.4
20260510014036 83 0 0.0 2.0 0.00 0.04 0.04 67 1013.3
20260510013537 84 0 0.0 3.0 0.00 0.04 0.04 66 1013.1
20260510013055 84 0 0.0 3.0 0.00 0.04 0.04 65 1013.0
20260510012539 85 70 0.0 2.0 0.00 0.04 0.04 65 1013.0
20260510012037 85 0 0.0 2.0 0.00 0.04 0.04 64 1012.9
20260510011543 85 0 0.0 2.0 0.00 0.04 0.04 63 1012.8
20260510011036 86 0 0.0 2.0 0.00 0.04 0.04 62 1012.8
20260510010536 86 0 0.0 2.0 0.00 0.04 0.04 62 1012.8
20260510005536 87 0 0.0 3.0 0.00 0.04 0.04 61 1012.6
20260510005036 87 0 0.0 3.0 0.00 0.04 0.04 60 1012.5
20260510004540 87 0 0.0 3.0 0.00 0.04 0.04 60 1012.5
20260510004036 87 0 0.0 6.0 0.00 0.04 0.04 59 1012.4
20260510003536 87 132 1.0 6.0 0.00 0.04 0.04 58 1012.4
20260510003050 88 0 0.0 8.0 0.00 0.04 0.04 58 1012.5
20260510002536 88 0 0.0 8.0 0.00 0.04 0.04 57 1012.4
20260510002036 88 0 2.0 8.0 0.00 0.04 0.04 56 1012.5
20260510001545 88 156 1.0 7.0 0.00 0.04 0.04 55 1012.4
20260510001040 88 150 2.0 7.0 0.00 0.04 0.04 55 1012.4
20260510000540 89 80 2.0 9.0 0.00 0.04 0.04 54 1012.4
20260510000046 89 155 4.0 9.0 0.00 0.04 0.04 53 1012.1
20260509235537 89 140 4.0 8.0 0.00 0.04 0.04 53 1012.2
20260509235036 89 153 3.0 11.0 0.00 0.04 0.04 52 1012.1
20260509234601 90 0 4.0 11.0 0.00 0.04 0.04 52 1012.1
20260509234039 90 160 6.0 11.0 0.00 0.04 0.04 51 1012.0
20260509233539 90 186 4.0 10.0 0.00 0.04 0.04 51 1011.9
20260509233040 90 167 4.0 10.0 0.00 0.04 0.04 49 1012.0
20260509232540 91 91 3.0 9.0 0.00 0.04 0.04 49 1012.0
20260509232036 91 130 3.0 12.0 0.00 0.04 0.04 51 1012.0
20260509231540 91 164 5.0 12.0 0.00 0.04 0.04 50 1011.9
20260509231036 91 142 4.0 10.0 0.00 0.04 0.04 50 1012.0
20260509230540 92 143 4.0 10.0 0.00 0.04 0.04 50 1012.3
20260509230046 92 164 4.0 10.0 0.00 0.04 0.04 50 1012.4
20260509225537 92 157 3.0 10.0 0.00 0.04 0.04 50 1012.4
20260509225040 93 148 3.0 8.0 0.00 0.04 0.04 48 1012.5
20260509224541 93 115 4.0 10.0 0.00 0.04 0.04 49 1012.4
20260509224037 94 146 3.0 10.0 0.00 0.04 0.04 49 1012.3
20260509223537 94 156 2.0 8.0 0.00 0.04 0.04 47 1012.2
20260509223041 94 147 4.0 8.0 0.00 0.04 0.04 46 1012.2
20260509222536 94 180 2.0 8.0 0.00 0.04 0.04 47 1012.2
20260509222036 94 153 3.0 8.0 0.00 0.04 0.04 48 1012.2
20260509221607 94 148 1.0 8.0 0.00 0.04 0.04 47 1012.1
20260509221037 94 162 3.0 9.0 0.00 0.04 0.04 47 1012.2
20260509220536 94 165 3.0 10.0 0.00 0.04 0.04 47 1012.2
20260509220043 94 157 2.0 10.0 0.00 0.04 0.04 47 1012.2
20260509215536 94 0 0.0 4.0 0.00 0.04 0.04 47 1012.3
20260509215036 95 0 0.0 4.0 0.00 0.04 0.04 47 1012.3
20260509214550 95 0 0.0 3.0 0.00 0.04 0.04 45 1012.3
20260509214039 96 0 0.0 6.0 0.00 0.04 0.04 46 1012.4
20260509213536 96 69 1.0 6.0 0.00 0.04 0.04 46 1012.4
20260509213041 95 0 1.0 5.0 0.00 0.04 0.04 47 1012.4
20260509212539 95 0 1.0 7.0 0.00 0.04 0.04 47 1012.3
20260509212039 95 0 1.0 7.0 0.00 0.04 0.04 48 1012.4
20260509211546 94 0 1.0 7.0 0.00 0.04 0.04 47 1012.4
20260509211036 94 161 3.0 8.0 0.00 0.04 0.04 48 1012.5
20260509210536 94 194 3.0 8.0 0.00 0.04 0.04 48 1012.5
20260509210054 94 215 2.0 6.0 0.00 0.04 0.04 49 1012.6
20260509205535 94 0 1.0 7.0 0.00 0.04 0.04 47 1012.6
20260509205035 95 152 2.0 7.0 0.00 0.04 0.04 48 1012.7
20260509204541 94 0 0.0 3.0 0.00 0.04 0.04 48 1012.8
20260509204036 94 64 1.0 3.0 0.00 0.04 0.04 49 1012.9
20260509203537 93 76 1.0 4.0 0.00 0.04 0.04 51 1012.9
20260509203045 93 0 0.0 4.0 0.00 0.04 0.04 50 1013.0
20260509202552 92 0 0.0 4.0 0.00 0.04 0.04 52 1013.1
20260509202037 92 350 1.0 4.0 0.00 0.04 0.04 53 1013.2
20260509201550 92 303 0.0 4.0 0.00 0.04 0.04 52 1013.3
20260509201036 92 150 0.0 7.0 0.00 0.04 0.04 53 1013.3
20260509200536 91 0 1.0 7.0 0.00 0.04 0.04 54 1013.4
20260509200050 91 0 1.0 6.0 0.00 0.04 0.04 54 1013.5
20260509195537 91 0 0.0 6.0 0.00 0.04 0.04 53 1013.6
20260509195041 92 0 1.0 6.0 0.00 0.04 0.04 53 1013.5
20260509194544 92 237 1.0 5.0 0.00 0.04 0.04 51 1013.7
20260509194036 92 248 0.0 5.0 0.00 0.04 0.04 52 1013.7
20260509193536 92 0 2.0 5.0 0.00 0.04 0.04 52 1013.8
20260509193046 92 232 1.0 5.0 0.00 0.04 0.04 53 1013.8
20260509192535 92 273 1.0 5.0 0.00 0.04 0.04 51 1013.9
20260509192045 91 0 0.0 4.0 0.00 0.04 0.04 55 1014.0
20260509191601 90 5 0.0 5.0 0.00 0.04 0.04 53 1014.1
20260509191036 90 292 0.0 7.0 0.00 0.04 0.04 55 1014.2
20260509190539 91 319 2.0 7.0 0.00 0.04 0.04 53 1014.2
20260509190047 91 248 2.0 6.0 0.00 0.04 0.04 55 1014.2
20260509185536 91 0 1.0 6.0 0.00 0.04 0.04 58 1014.1
20260509185036 90 92 0.0 7.0 0.00 0.04 0.04 60 1014.2
20260509184547 90 281 1.0 7.0 0.00 0.04 0.04 58 1014.2
20260509184036 91 271 1.0 7.0 0.00 0.04 0.04 58 1014.2
20260509183536 91 0 0.0 8.0 0.00 0.04 0.04 59 1014.2
20260509183049 91 0 0.0 10.0 0.00 0.04 0.04 59 1014.3
20260509182539 90 159 5.0 10.0 0.00 0.04 0.04 60 1014.4
20260509182035 89 167 0.0 5.0 0.00 0.04 0.04 61 1014.4
20260509181542 89 126 2.0 8.0 0.00 0.04 0.04 59 1014.4
20260509181036 90 163 2.0 8.0 0.00 0.04 0.04 61 1014.4
20260509180538 89 134 3.0 8.0 0.00 0.04 0.04 61 1014.6
20260509180042 89 177 0.0 7.0 0.00 0.04 0.04 62 1014.5
20260509175536 88 175 1.0 9.0 0.00 0.04 0.04 63 1014.6
20260509175036 88 186 3.0 9.0 0.00 0.04 0.04 63 1014.7
20260509174550 88 0 0.0 7.0 0.00 0.04 0.04 63 1014.5
20260509174037 88 180 1.0 7.0 0.00 0.04 0.04 66 1014.7
20260509173536 87 0 1.0 7.0 0.00 0.04 0.04 66 1014.9
20260509173056 87 0 0.0 5.0 0.00 0.04 0.04 67 1014.9
20260509172536 87 0 1.0 6.0 0.00 0.04 0.04 67 1015.0
20260509172035 87 0 0.0 12.0 0.00 0.04 0.04 69 1015.0
20260509171556 86 0 2.0 12.0 0.00 0.04 0.04 69 1015.0
20260509171033 85 159 3.0 8.0 0.00 0.04 0.04 74 1015.0
20260509170534 85 207 1.0 9.0 0.00 0.04 0.04 72 1015.1
20260509170045 85 313 3.0 9.0 0.00 0.04 0.04 73 1015.0
20260509165532 84 157 2.0 8.0 0.00 0.04 0.04 73 1014.9
20260509165036 84 169 1.0 9.0 0.00 0.04 0.04 74 1015.0
20260509164548 83 173 4.0 9.0 0.00 0.04 0.04 73 1014.9
20260509164034 83 145 1.0 9.0 0.00 0.04 0.04 74 1014.9
20260509163535 82 252 1.0 9.0 0.00 0.04 0.04 76 1015.0
20260509163048 82 251 2.0 8.0 0.00 0.04 0.04 77 1015.1
20260509162534 81 0 3.0 8.0 0.00 0.04 0.04 77 1014.9
20260509162036 81 247 1.0 7.0 0.00 0.04 0.04 79 1015.0
20260509161548 80 273 1.0 9.0 0.00 0.04 0.04 80 1014.9
20260509161034 80 213 1.0 9.0 0.00 0.04 0.04 82 1014.9
20260509160534 79 252 3.0 9.0 0.00 0.04 0.04 82 1014.7
20260509160045 79 248 1.0 8.0 0.00 0.04 0.04 83 1014.7
20260509155533 79 202 1.0 8.0 0.00 0.04 0.04 82 1014.8
20260509155033 79 252 1.0 9.0 0.00 0.04 0.04 85 1014.8
20260509154543 78 296 2.0 9.0 0.00 0.04 0.04 86 1014.8
20260509154033 77 0 0.0 5.0 0.00 0.04 0.04 89 1014.7
20260509153534 76 0 0.0 5.0 0.00 0.04 0.04 92 1014.5
20260509153043 76 0 0.0 2.0 0.00 0.04 0.04 92 1014.7
20260509152535 75 0 0.0 1.0 0.00 0.04 0.04 94 1014.7
20260509152038 74 0 0.0 0.0 0.00 0.04 0.04 95 1014.8
20260509151540 73 0 0.0 0.0 0.00 0.04 0.04 94 1015.1
20260509151035 72 0 0.0 0.0 0.00 0.04 0.04 94 1015.1
20260509150536 71 0 0.0 0.0 0.00 0.04 0.04 94 1015.1
20260509150039 70 0 0.0 0.0 0.00 0.04 0.04 93 1015.0
20260509145536 70 0 0.0 0.0 0.00 0.04 0.04 93 1014.7
20260509145034 70 0 0.0 0.0 0.00 0.04 0.04 93 1015.0
20260509144548 70 0 0.0 0.0 0.00 0.04 0.04 93 1015.0
20260509144034 69 0 0.0 1.0 0.02 0.04 0.04 92 1015.2
20260509143534 69 0 0.0 2.0 0.04 0.04 0.04 92 1015.5
20260509143045 69 0 0.0 2.0 0.04 0.04 0.04 92 1015.6
20260509142534 69 0 0.0 1.0 0.04 0.04 0.04 92 1015.6
20260509142034 69 0 0.0 0.0 0.04 0.04 0.04 92 1015.5
20260509141552 69 0 0.0 1.0 0.04 0.04 0.04 92 1015.8
20260509141033 69 0 0.0 1.0 0.04 0.04 0.04 91 1015.9
20260509140535 69 0 0.0 6.0 0.04 0.04 0.04 91 1015.8
20260509140050 69 0 0.0 6.0 0.04 0.04 0.04 90 1015.5
20260509135534 70 162 2.0 9.0 0.04 0.04 0.04 89 1015.5
20260509135034 70 179 1.0 10.0 0.04 0.04 0.04 89 1015.4
20260509134555 71 201 4.0 11.0 0.03 0.03 0.03 90 1014.9
20260509134038 73 169 4.0 11.0 0.02 0.02 0.02 93 1014.6
20260509133534 74 96 1.0 7.0 0.00 0.00 0.00 95 1014.8
20260509133048 74 140 0.0 2.0 0.00 0.00 0.00 95 1014.9
20260509132538 74 0 0.0 2.0 0.00 0.00 0.00 94 1014.7
20260509132037 74 71 0.0 1.0 0.00 0.00 0.00 94 1014.5
20260509131558 74 0 0.0 1.0 0.00 0.00 0.00 95 1014.7
20260509131034 74 0 0.0 0.0 0.00 0.00 0.00 94 1014.9
20260509130537 74 0 0.0 1.0 0.00 0.00 0.00 94 1015.1
20260509130059 74 0 0.0 6.0 0.00 0.00 0.00 94 1014.9
20260509125534 74 0 0.0 6.0 0.00 0.00 0.00 94 1014.9
20260509125034 74 0 0.0 5.0 0.00 0.00 0.00 94 1014.9
20260509124544 74 38 0.0 5.0 0.00 0.00 0.00 94 1015.1
20260509124036 74 0 1.0 5.0 0.00 0.00 0.00 94 1015.0
20260509123534 74 0 0.0 4.0 0.00 0.00 0.00 94 1015.1
20260509123048 74 0 0.0 3.0 0.00 0.00 0.00 94 1015.1
20260509122535 74 0 0.0 3.0 0.00 0.00 0.00 94 1015.1
20260509122035 74 0 0.0 3.0 0.00 0.00 0.00 94 1015.1
20260509121549 74 0 0.0 2.0 0.00 0.00 0.00 94 1015.0
20260509121038 74 0 0.0 1.0 0.00 0.00 0.00 94 1015.1
20260509120535 74 0 0.0 1.0 0.00 0.00 0.00 94 1014.9
20260509120045 74 0 0.0 0.0 0.00 0.00 0.00 94 1014.8
20260509115534 74 0 0.0 0.0 0.00 0.00 0.00 94 1014.7
20260509115034 74 0 0.0 0.0 0.00 0.00 0.00 94 1014.4
20260509114540 74 0 0.0 0.0 0.00 0.00 0.00 94 1014.3
20260509114037 74 0 0.0 0.0 0.00 0.00 0.00 94 1014.1
20260509113539 74 0 0.0 1.0 0.00 0.00 0.00 94 1014.2
20260509113043 74 0 0.0 1.0 0.00 0.00 0.00 94 1013.9
20260509112535 74 0 0.0 0.0 0.00 0.00 0.00 94 1014.1
20260509112034 73 0 0.0 0.0 0.00 0.00 0.00 94 1013.9
20260509111541 73 0 0.0 1.0 0.00 0.00 0.00 94 1014.0
20260509111034 73 0 0.0 1.0 0.00 0.00 0.00 94 1013.9
20260509110534 73 0 0.0 2.0 0.00 0.00 0.00 94 1013.9
20260509110057 73 0 0.0 5.0 0.00 0.00 0.00 94 1013.8
20260509105534 73 0 0.0 5.0 0.00 0.00 0.00 94 1013.7
20260509105034 73 0 0.0 1.0 0.00 0.00 0.00 94 1013.7
20260509104551 73 0 0.0 0.0 0.00 0.00 0.00 94 1013.7
20260509104037 73 0 0.0 0.0 0.00 0.00 0.00 94 1013.7
20260509103536 73 0 0.0 0.0 0.00 0.00 0.00 94 1013.8
20260509103041 74 0 0.0 0.0 0.00 0.00 0.00 94 1014.0
20260509102536 73 0 0.0 0.0 0.00 0.00 0.00 94 1014.2
20260509102037 73 0 0.0 0.0 0.00 0.00 0.00 94 1014.2
20260509101550 73 0 0.0 0.0 0.00 0.00 0.00 94 1014.2
20260509101036 74 0 0.0 0.0 0.00 0.00 0.00 94 1014.0
20260509100536 73 0 0.0 1.0 0.00 0.00 0.00 94 1014.0
20260509100041 73 0 0.0 1.0 0.00 0.00 0.00 94 1013.8
20260509095536 73 0 0.0 1.0 0.00 0.00 0.00 94 1013.8
20260509095035 73 0 0.0 0.0 0.00 0.00 0.00 95 1013.8
20260509094546 73 0 0.0 0.0 0.00 0.00 0.00 95 1013.8
20260509094036 73 0 0.0 0.0 0.00 0.00 0.00 95 1013.5
20260509093536 73 0 0.0 0.0 0.00 0.00 0.00 95 1013.1
20260509093042 73 0 0.0 0.0 0.00 0.00 0.00 95 1013.2
20260509092539 73 0 0.0 2.0 0.00 0.00 0.00 95 1013.1
20260509092037 73 0 0.0 3.0 0.00 0.00 0.00 95 1012.8
20260509091549 73 0 0.0 3.0 0.00 0.00 0.00 95 1012.6
20260509091037 73 0 0.0 3.0 0.00 0.00 0.00 95 1012.7
20260509090538 73 0 0.0 7.0 0.00 0.00 0.00 95 1012.2
20260509085537 73 0 1.0 10.0 0.00 0.00 0.00 94 1012.3
20260509085036 73 285 1.0 12.0 0.00 0.00 0.00 94 1011.9
20260509084600 73 0 4.0 12.0 0.00 0.00 0.00 94 1010.8
20260509084036 73 149 6.0 12.0 0.00 0.00 0.00 94 1010.1
20260509083535 73 82 4.0 10.0 0.00 0.00 0.00 94 1011.2
20260509083046 73 74 2.0 9.0 0.00 0.00 0.00 94 1012.2
20260509082536 73 0 1.0 7.0 0.00 0.00 0.00 94 1012.5
20260509082038 73 105 0.0 6.0 0.00 0.00 0.00 94 1012.9
20260509081549 73 0 0.0 8.0 0.00 0.00 0.00 94 1013.2
20260509081037 73 141 1.0 9.0 0.00 0.00 0.00 94 1013.3
20260509080536 73 156 0.0 10.0 0.00 0.00 0.00 94 1013.7
20260509080049 74 154 2.0 10.0 0.00 0.00 0.00 94 1013.8
20260509075536 74 144 0.0 8.0 0.00 0.00 0.00 94 1013.9
20260509075036 73 161 2.0 7.0 0.00 0.00 0.00 93 1013.8
20260509074553 74 148 2.0 6.0 0.00 0.00 0.00 93 1013.8
20260509074038 74 139 0.0 5.0 0.00 0.00 0.00 93 1013.8
20260509073536 74 0 1.0 4.0 0.00 0.00 0.00 93 1013.8
20260509073048 74 0 0.0 4.0 0.00 0.00 0.00 93 1013.6
20260509072544 74 0 0.0 3.0 0.00 0.00 0.00 93 1013.5
20260509072036 74 0 0.0 2.0 0.00 0.00 0.00 93 1013.5
20260509071544 74 0 0.0 2.0 0.00 0.00 0.00 93 1013.5
20260509071036 74 0 0.0 2.0 0.00 0.00 0.00 93 1013.5
20260509070539 74 0 0.0 4.0 0.00 0.00 0.00 93 1013.6
20260509070044 74 69 0.0 6.0 0.00 0.00 0.00 93 1013.5
20260509065537 74 0 0.0 6.0 0.00 0.00 0.00 93 1013.6
20260509065036 74 0 0.0 6.0 0.00 0.00 0.00 92 1013.7
20260509064550 74 64 1.0 6.0 0.00 0.00 0.00 92 1013.6
20260509064037 74 0 1.0 7.0 0.00 0.00 0.00 92 1013.9
20260509063536 74 0 1.0 7.0 0.00 0.00 0.00 92 1014.0
20260509063049 74 0 1.0 8.0 0.00 0.00 0.00 92 1013.9
20260509062536 74 92 1.0 9.0 0.00 0.00 0.00 92 1014.0
20260509062036 74 107 3.0 9.0 0.00 0.00 0.00 92 1014.0
20260509061550 74 153 2.0 8.0 0.00 0.00 0.00 92 1014.2
20260509061036 74 0 1.0 7.0 0.00 0.00 0.00 91 1014.3
20260509060536 74 0 1.0 6.0 0.00 0.00 0.00 91 1014.2
20260509060044 74 162 0.0 6.0 0.00 0.00 0.00 91 1014.1
20260509055536 74 0 0.0 4.0 0.00 0.00 0.00 91 1014.1
20260509055035 74 74 0.0 3.0 0.00 0.00 0.00 91 1014.1
20260509054601 74 114 0.0 4.0 0.00 0.00 0.00 91 1014.0
20260509054037 74 0 0.0 4.0 0.00 0.00 0.00 91 1014.0
20260509053538 74 104 0.0 4.0 0.00 0.00 0.00 91 1014.1
20260509053141 74 0 0.0 4.0 0.00 0.00 0.00 91 1014.3
20260509052541 74 122 1.0 3.0 0.00 0.00 0.00 91 1014.5
20260509052036 74 0 0.0 4.0 0.00 0.00 0.00 90 1014.6
20260509051547 74 90 1.0 4.0 0.00 0.00 0.00 90 1014.5
20260509051036 74 156 0.0 6.0 0.00 0.00 0.00 90 1014.6
20260509050537 74 107 1.0 6.0 0.00 0.00 0.00 90 1014.7
20260509050046 74 0 0.0 3.0 0.00 0.00 0.00 90 1014.6
20260509045536 74 82 0.0 4.0 0.00 0.00 0.00 90 1014.7
20260509045037 74 91 1.0 4.0 0.00 0.00 0.00 90 1014.6
20260509044548 74 97 0.0 4.0 0.00 0.00 0.00 90 1014.5
20260509044036 74 0 1.0 4.0 0.00 0.00 0.00 90 1014.3
20260509043536 74 0 0.0 5.0 0.00 0.00 0.00 90 1014.3
20260509043043 74 0 1.0 9.0 0.00 0.00 0.00 90 1014.3
20260509042536 74 63 1.0 9.0 0.00 0.00 0.00 90 1014.1
20260509042036 74 70 3.0 7.0 0.00 0.00 0.00 90 1014.0
20260509041541 74 0 1.0 6.0 0.00 0.00 0.00 90 1014.1
20260509041035 74 0 1.0 8.0 0.00 0.00 0.00 89 1014.0
20260509040536 74 80 2.0 8.0 0.00 0.00 0.00 89 1013.9
20260509040056 74 80 1.0 5.0 0.00 0.00 0.00 89 1013.9
20260509035536 74 69 1.0 8.0 0.00 0.00 0.00 89 1013.8
20260509035037 74 74 2.0 8.0 0.00 0.00 0.00 89 1013.8
20260509034604 74 70 2.0 7.0 0.00 0.00 0.00 89 1013.9
20260509034036 74 76 2.0 7.0 0.00 0.00 0.00 89 1013.9
20260509033536 74 24 1.0 5.0 0.00 0.00 0.00 89 1013.7
20260509033044 74 68 1.0 5.0 0.00 0.00 0.00 89 1013.7
20260509032536 74 0 0.0 7.0 0.00 0.00 0.00 89 1013.8
20260509032035 74 0 0.0 7.0 0.00 0.00 0.00 89 1013.8
20260509031543 74 80 1.0 6.0 0.00 0.00 0.00 89 1013.7
20260509031036 74 72 2.0 7.0 0.00 0.00 0.00 89 1013.6
20260509030537 75 105 2.0 7.0 0.00 0.00 0.00 88 1013.5
20260509030041 75 54 1.0 6.0 0.00 0.00 0.00 88 1013.5
20260509025536 75 70 1.0 7.0 0.00 0.00 0.00 88 1013.5
20260509025036 75 83 2.0 7.0 0.00 0.00 0.00 88 1013.4
20260509024546 75 79 3.0 7.0 0.00 0.00 0.00 88 1013.4
20260509024036 75 80 2.0 7.0 0.00 0.00 0.00 87 1013.2
20260509023537 75 126 2.0 7.0 0.00 0.00 0.00 87 1013.2